Weather History for EHVK - November, 2012

Change the Weather History Date:

Saturday, November 3, 2012

  Actual Average Record
Temperature  
Mean Temperature 42 °F -  
Max Temperature 48 °F 46 °F 66 °F (2005)
Min Temperature 37 °F 35 °F 37 °F (1997)
Degree Days  
Heating Degree Days 22    
Moisture  
Dew Point 42 °F    
Average Humidity 91    
Maximum Humidity 100    
Minimum Humidity 81    
Precipitation  
Precipitation 0.00 in - - ()
Sea Level Pressure  
Sea Level Pressure 29.46 in    
Wind  
Wind Speed 9 mph ()    
Max Wind Speed 22 mph    
Max Gust Speed -    
Visibility 6.2 miles    
Events Rain    
Averages and records for this station are not official NWS values.
T = Trace of Precipitation, MM = Missing Value Source: Averaged Metar Reports

Daily Weather History Graph

Daily Weather History Graph

Search for Another Location

Airport or City:

Trip Planner

Search our weather history database for the weather conditions in past years. The results will help you decide how hot, cold, wet, or windy it might be!

Date:

Astronomy

Nov. 03, 2012 Rise Set
Actual Time 7:35 AM CET 5:05 PM CET
Civil Twilight 6:59 AM CET 5:41 PM CET
Nautical Twilight 6:19 AM CET 6:20 PM CET
Astronomical Twilight 5:40 AM CET 6:59 PM CET
Moon 8:19 PM CET (11/3) 11:42 AM CET (11/3)
Length of Visible Light 10h 41m
Length of Day
9h 30m
Waning Gibbous, 82% of the Moon is Illuminated
Nov 3
Waning Gibbous
Nov 7
Last Quarter
Nov 13
New
Nov 20
First Quarter
Nov 28
Full

Hourly Weather History & Observations

Time (CET) Temp. Windchill Dew Point Humidity Pressure Visibility Wind Dir Wind Speed Gust Speed Precip Events Conditions
12:25 AM 41.0 °F 33.9 °F 39.2 °F 93% 29.47 in 6.2 mi SW 12.7 mph - N/A   Overcast
12:55 AM 41.0 °F 33.9 °F 39.2 °F 93% 29.50 in 6.2 mi SW 12.7 mph - N/A   Overcast
1:25 AM 41.0 °F 33.9 °F 39.2 °F 93% 29.50 in 6.2 mi SSW 12.7 mph - N/A   Overcast
1:55 AM 41.0 °F 34.7 °F 39.2 °F 93% 29.50 in 6.2 mi SSW 10.4 mph - N/A   Overcast
2:25 AM 41.0 °F 35.8 °F 39.2 °F 93% 29.50 in 6.2 mi South 8.1 mph - N/A   Overcast
2:55 AM 41.0 °F 34.7 °F 39.2 °F 93% 29.50 in 6.2 mi SSW 10.4 mph - N/A   Scattered Clouds
3:25 AM 41.0 °F 35.2 °F 39.2 °F 93% 29.47 in 6.2 mi SSW 9.2 mph - N/A   Unknown
3:55 AM 39.2 °F 33.0 °F 37.4 °F 93% 29.50 in 6.2 mi South 9.2 mph - N/A   Unknown
4:25 AM 39.2 °F 33.6 °F 37.4 °F 93% 29.47 in 6.2 mi South 8.1 mph - N/A   Unknown
4:55 AM 39.2 °F 32.0 °F 39.2 °F 100% 29.50 in 6.2 mi SSW 11.5 mph - N/A   Unknown
5:25 AM 41.0 °F 34.3 °F 39.2 °F 93% 29.50 in 6.2 mi SSW 11.5 mph - N/A   Partly Cloudy
5:55 AM 41.0 °F 35.2 °F 39.2 °F 93% 29.47 in 6.2 mi South 9.2 mph - N/A   Overcast
6:25 AM 41.0 °F 35.8 °F 39.2 °F 93% 29.47 in 6.2 mi South 8.1 mph - N/A   Overcast
6:55 AM 41.0 °F 35.2 °F 39.2 °F 93% 29.47 in 6.2 mi SSW 9.2 mph - N/A   Overcast
7:25 AM 41.0 °F 35.8 °F 39.2 °F 93% 29.47 in 6.2 mi South 8.1 mph - N/A   Overcast
7:55 AM 41.0 °F 36.4 °F 39.2 °F 93% 29.47 in 6.2 mi South 6.9 mph - N/A   Overcast
8:25 AM 41.0 °F 38.0 °F 39.2 °F 93% 29.47 in 6.2 mi South 4.6 mph - N/A   Mostly Cloudy
8:41 AM 41.0 °F 37.1 °F 39.2 °F 93% 29.47 in 6.2 mi South 5.8 mph - N/A   Mostly Cloudy
8:48 AM 42.8 °F 39.3 °F 41.0 °F 93% 29.47 in 6.2 mi South 5.8 mph - N/A   Overcast
8:55 AM 42.8 °F 38.0 °F 41.0 °F 93% 29.47 in 6.2 mi South 8.1 mph - N/A   Overcast
9:10 AM 42.8 °F 38.6 °F 41.0 °F 93% 29.47 in 6.2 mi South 6.9 mph - N/A   Mostly Cloudy
9:17 AM 42.8 °F 38.6 °F 41.0 °F 93% 29.47 in 6.2 mi South 6.9 mph - N/A   Mostly Cloudy
9:21 AM 42.8 °F 38.0 °F 41.0 °F 93% 29.47 in 6.2 mi South 8.1 mph - N/A   Mostly Cloudy
9:25 AM 42.8 °F 38.0 °F 41.0 °F 93% 29.47 in 6.2 mi South 8.1 mph - N/A   Mostly Cloudy
9:43 AM 44.6 °F 40.2 °F 41.0 °F 87% 29.44 in 6.2 mi South 8.1 mph - N/A   Mostly Cloudy
9:55 AM 44.6 °F 40.7 °F 41.0 °F 87% 29.44 in 6.2 mi South 6.9 mph - N/A   Mostly Cloudy
9:59 AM 44.6 °F 40.7 °F 41.0 °F 87% 29.44 in 6.2 mi South 6.9 mph - N/A   Mostly Cloudy
10:00 AM 44.6 °F 40.7 °F 41.0 °F 87% 29.44 in 6.2 mi South 6.9 mph - N/A   Mostly Cloudy
10:25 AM 44.6 °F 39.2 °F 42.8 °F 93% 29.44 in 6.2 mi South 10.4 mph - N/A Rain Light Rain
10:55 AM 44.6 °F 39.7 °F 42.8 °F 93% 29.44 in 6.2 mi SSW 9.2 mph - N/A Rain Light Rain
11:25 AM 44.6 °F 40.2 °F 42.8 °F 93% 29.44 in 6.2 mi South 8.1 mph - N/A Rain Light Rain Showers
11:31 AM 44.6 °F 40.7 °F 42.8 °F 93% 29.44 in 6.2 mi South 6.9 mph - N/A Rain Light Rain Showers
11:39 AM 44.6 °F 41.4 °F 42.8 °F 93% 29.44 in 6.2 mi South 5.8 mph - N/A Rain Light Rain Showers
11:43 AM 44.6 °F 42.2 °F 42.8 °F 93% 29.44 in 6.2 mi South 4.6 mph - N/A Rain Light Rain Showers
11:47 AM 44.6 °F 42.2 °F 44.6 °F 100% 29.44 in 6.2 mi South 4.6 mph - N/A Rain Light Rain Showers
11:55 AM 44.6 °F 42.2 °F 44.6 °F 100% 29.44 in 6.2 mi South 4.6 mph - N/A Rain Light Rain Showers
12:00 PM 44.6 °F 41.4 °F 44.6 °F 100% 29.44 in 6.2 mi SSE 5.8 mph - N/A Rain Light Rain
12:04 PM 44.6 °F 41.4 °F 44.6 °F 100% 29.44 in 6.2 mi SSE 5.8 mph - N/A Rain Light Rain
12:05 PM 44.6 °F 41.4 °F 44.6 °F 100% 29.44 in 6.2 mi SSE 5.8 mph - N/A Rain Light Rain
12:15 PM 46.4 °F 43.5 °F 44.6 °F 93% 29.42 in 6.2 mi SSE 5.8 mph - N/A Rain Light Rain
12:25 PM 46.4 °F 42.9 °F 44.6 °F 93% 29.42 in 6.2 mi South 6.9 mph - N/A Rain Light Rain
12:32 PM 46.4 °F 42.9 °F 44.6 °F 93% 29.42 in 6.2 mi South 6.9 mph - N/A Rain Light Rain
12:36 PM 46.4 °F 42.4 °F 44.6 °F 93% 29.42 in 6.2 mi South 8.1 mph - N/A Rain Light Rain
12:51 PM 46.4 °F 42.9 °F 44.6 °F 93% 29.42 in 6.2 mi South 6.9 mph - N/A Rain Drizzle
12:55 PM 46.4 °F 42.4 °F 44.6 °F 93% 29.42 in 6.2 mi South 8.1 mph - N/A Rain Light Rain
12:59 PM 46.4 °F 42.4 °F 44.6 °F 93% 29.42 in 6.2 mi South 8.1 mph - N/A Rain Light Rain
1:06 PM 46.4 °F 42.9 °F 44.6 °F 93% 29.42 in 6.2 mi South 6.9 mph - N/A Rain Light Rain Showers
1:12 PM 46.4 °F 42.9 °F 44.6 °F 93% 29.42 in 6.2 mi South 6.9 mph - N/A Rain Light Rain Showers
1:25 PM 46.4 °F 42.4 °F 44.6 °F 93% 29.42 in 6.2 mi South 8.1 mph - N/A   Drizzle
1:34 PM 46.4 °F 42.9 °F 44.6 °F 93% 29.42 in 4.3 mi South 6.9 mph - N/A Rain Heavy Rain Showers
1:47 PM 46.4 °F 40.7 °F 44.6 °F 93% 29.42 in 5.6 mi SSW 12.7 mph - N/A Rain Light Rain
1:48 PM 46.4 °F 41.1 °F 44.6 °F 93% 29.42 in 6.2 mi SSW 11.5 mph - N/A Rain Light Rain
1:55 PM 46.4 °F 41.5 °F 44.6 °F 93% 29.42 in 6.2 mi SSW 10.4 mph - N/A Rain Light Rain
2:12 PM 46.4 °F 40.7 °F 44.6 °F 93% 29.42 in 6.2 mi SSW 12.7 mph - N/A   Mostly Cloudy
2:16 PM 46.4 °F 40.7 °F 44.6 °F 93% 29.42 in 6.2 mi SSW 12.7 mph - N/A   Mostly Cloudy
2:25 PM 46.4 °F 41.1 °F 44.6 °F 93% 29.42 in 6.2 mi SSW 11.5 mph - N/A   Mostly Cloudy
2:47 PM 48.2 °F - 44.6 °F 87% 29.42 in 6.2 mi SSW 9.2 mph - N/A   Mostly Cloudy
2:55 PM 48.2 °F - 44.6 °F 87% 29.42 in 6.2 mi SSW 11.5 mph - N/A   Scattered Clouds
2:57 PM 48.2 °F - 44.6 °F 87% 29.42 in 6.2 mi SW 16.1 mph - N/A   Mostly Cloudy
3:06 PM 48.2 °F - 44.6 °F 87% 29.42 in 6.2 mi SW 18.4 mph - N/A   Mostly Cloudy
3:13 PM 48.2 °F - 44.6 °F 87% 29.42 in 6.2 mi SW 18.4 mph - N/A   Mostly Cloudy
3:18 PM 48.2 °F - 42.8 °F 82% 29.44 in 6.2 mi SW 21.9 mph - N/A   Mostly Cloudy
3:25 PM 48.2 °F - 42.8 °F 82% 29.44 in 6.2 mi SW 20.7 mph - N/A   Scattered Clouds
3:31 PM 46.4 °F 39.2 °F 42.8 °F 87% 29.44 in 6.2 mi SW 18.4 mph - N/A   Partly Cloudy
3:55 PM 48.2 °F - 42.8 °F 82% 29.44 in 6.2 mi SW 16.1 mph - N/A   Scattered Clouds
4:25 PM 46.4 °F 39.2 °F 41.0 °F 81% 29.47 in 6.2 mi SW 18.4 mph - N/A   Unknown
4:55 PM 44.6 °F 38.1 °F 41.0 °F 87% 29.47 in 6.2 mi SW 13.8 mph - N/A   Unknown
5:25 PM 44.6 °F 37.4 °F 41.0 °F 87% 29.47 in 6.2 mi SW 16.1 mph - N/A   Unknown
5:55 PM 44.6 °F 37.8 °F 39.2 °F 81% 29.50 in 6.2 mi SW 15.0 mph - N/A   Partly Cloudy
6:25 PM 44.6 °F 38.4 °F 39.2 °F 81% 29.50 in 6.2 mi SSW 12.7 mph - N/A   Scattered Clouds
6:55 PM 44.6 °F 38.4 °F 39.2 °F 81% 29.53 in 6.2 mi SSW 12.7 mph - N/A   Scattered Clouds
7:25 PM 44.6 °F 38.4 °F 39.2 °F 81% 29.53 in 6.2 mi SW 12.7 mph - N/A   Unknown
7:55 PM 42.8 °F 37.0 °F 37.4 °F 81% 29.53 in 6.2 mi SW 10.4 mph - N/A   Unknown
8:25 PM 42.8 °F 37.0 °F 39.2 °F 87% 29.53 in 6.2 mi SSW 10.4 mph - N/A   Unknown
8:55 PM 41.0 °F 35.2 °F 37.4 °F 87% 29.56 in 6.2 mi SW 9.2 mph - N/A   Unknown
9:25 PM 41.0 °F 35.2 °F 39.2 °F 93% 29.56 in 6.2 mi SSW 9.2 mph - N/A   Unknown
9:55 PM 42.8 °F 38.0 °F 39.2 °F 87% 29.56 in 6.2 mi SSW 8.1 mph - N/A   Overcast
10:25 PM 41.0 °F 35.8 °F 39.2 °F 93% 29.56 in 6.2 mi SSW 8.1 mph - N/A   Overcast
10:55 PM 37.4 °F 32.8 °F 35.6 °F 93% 29.59 in 6.2 mi SSW 5.8 mph - N/A   Mostly Cloudy
11:25 PM 39.2 °F 33.6 °F 37.4 °F 93% 29.59 in 6.2 mi SSW 8.1 mph - N/A   Unknown
11:55 PM 41.0 °F 36.4 °F 39.2 °F 93% 29.59 in 6.2 mi SSW 6.9 mph - N/A   Mostly Cloudy